Date String (YYYY-MM-DD hh:mm:ss) UTC,Instrument flags,Ambient pressure (hPa),Sample flow (lpm),Bypass flow (lpm),Sample temperature (°C),Ambient temperature (°C),ASC tube jacket temperature (°C),LED temperature (°C),Box temperature (°C),Sample RH (%),Span deviation,Mass concentration (μg/m³),Mass concentration (μg/m³),Mass concentration (μg/m³)
DateTimeUTC,F1_M11,P_M11,Q1_M11,Q2_M11,T1_M11,T2_M11,T3_M11,T4_M11,T5_M11,U1_M11,ZSPAN_M11,X0_M11,X2_M11,X1_M11
2022-09-30 13:00:00,,0826.3,5.01,0.00,30.4,28.9,00.0,39.2,32.2,16.0,0000.0,0004.75,0003.39,0003.13
2022-09-30 13:01:00,,0826.3,4.98,0.00,30.4,28.9,00.0,39.2,32.2,15.9,0000.0,0004.91,0003.43,0003.15
2022-09-30 13:02:00,,0826.3,5.00,0.00,30.4,28.8,00.0,39.2,32.2,15.9,0000.0,0005.02,0003.47,0003.17
2022-09-30 13:03:00,,0826.3,5.00,0.00,30.4,28.8,00.0,39.2,32.2,16.0,0000.0,0006.85,0003.55,0003.19
2022-09-30 13:04:00,,0826.3,5.02,0.00,30.4,28.8,00.0,39.2,32.2,16.2,0000.0,0006.94,0003.58,0003.21
2022-09-30 13:05:00,,0826.3,4.99,0.00,30.4,28.9,00.0,39.2,32.2,16.1,0000.0,0007.01,0003.59,0003.20
2022-09-30 13:06:00,,0826.3,5.01,0.00,30.4,28.9,00.0,39.2,32.2,16.0,0000.0,0006.99,0003.59,0003.21
2022-09-30 13:07:00,,0826.3,4.99,0.00,30.4,28.9,00.0,39.2,32.2,16.0,0000.0,0007.16,0003.62,0003.23
2022-09-30 13:08:00,,0826.3,5.00,0.00,30.4,29.0,00.0,39.2,32.2,16.1,0000.0,0007.88,0003.62,0003.24
2022-09-30 13:09:00,,0826.3,5.01,0.00,30.4,29.0,00.0,39.2,32.2,16.1,0000.0,0007.91,0003.64,0003.25
2022-09-30 13:10:00,,0826.3,5.00,0.00,30.4,29.0,00.0,39.2,32.2,16.1,0000.0,0008.28,0003.66,0003.26
2022-09-30 13:11:00,,0826.4,4.99,0.00,30.4,29.0,00.0,39.2,32.2,16.0,0000.0,0008.24,0003.66,0003.27
2022-09-30 13:12:00,,0826.4,5.00,0.00,30.5,29.0,00.0,39.2,32.3,16.1,0000.0,0008.11,0003.62,0003.26
2022-09-30 13:13:00,,0826.4,5.01,0.00,30.5,29.0,00.0,39.2,32.3,16.1,0000.0,0008.06,0003.59,0003.25
2022-09-30 13:14:00,,0826.4,4.98,0.00,30.5,29.1,00.0,39.2,32.3,16.0,0000.0,0006.95,0003.53,0003.23
2022-09-30 13:15:00,,0826.4,5.01,0.00,30.5,29.1,00.0,39.2,32.3,15.9,0000.0,0006.94,0003.53,0003.23
2022-09-30 13:16:00,,0826.4,5.00,0.00,30.5,29.1,00.0,39.2,32.3,15.9,0000.0,0006.88,0003.52,0003.22
2022-09-30 13:17:00,,0826.4,5.00,0.00,30.5,29.1,00.0,39.2,32.3,16.0,0000.0,0006.91,0003.52,0003.21
2022-09-30 13:18:00,,0826.4,5.01,0.00,30.5,29.1,00.0,39.3,32.3,15.9,0000.0,0006.80,0003.50,0003.19
2022-09-30 13:19:00,,0826.4,5.00,0.00,30.5,29.1,00.0,39.3,32.3,15.9,0000.0,0005.64,0003.49,0003.17
2022-09-30 13:20:00,,0826.3,4.99,0.00,30.5,29.2,00.0,39.3,32.3,15.8,0000.0,0005.64,0003.47,0003.15
2022-09-30 13:21:00,,0826.2,5.01,0.00,30.5,29.2,00.0,39.3,32.3,15.9,0000.0,0005.25,0003.48,0003.15
2022-09-30 13:22:00,,0826.3,4.99,0.00,30.5,29.2,00.0,39.3,32.3,15.9,0000.0,0005.21,0003.46,0003.14
2022-09-30 13:23:00,,0826.3,5.00,0.00,30.6,29.2,00.0,39.3,32.4,15.9,0000.0,0005.18,0003.45,0003.13
2022-09-30 13:24:00,,0826.2,5.01,0.00,30.6,29.2,00.0,39.3,32.4,15.8,0000.0,0005.37,0003.45,0003.13
2022-09-30 13:25:00,,0826.4,4.99,0.00,30.6,29.2,00.0,39.3,32.4,15.8,0000.0,0005.72,0003.46,0003.14
2022-09-30 13:26:00,,0826.3,5.01,0.00,30.6,29.2,00.0,39.3,32.4,15.8,0000.0,0005.78,0003.45,0003.14
2022-09-30 13:27:00,,0826.3,5.00,0.00,30.6,29.2,00.0,39.3,32.4,15.9,0000.0,0006.96,0003.47,0003.15
2022-09-30 13:28:00,,0826.3,4.99,0.00,30.6,29.2,00.0,39.3,32.4,15.8,0000.0,0007.13,0003.50,0003.16
2022-09-30 13:29:00,,0826.3,5.01,0.00,30.6,29.2,00.0,39.3,32.4,15.9,0000.0,0007.08,0003.50,0003.17
2022-09-30 13:30:00,,0826.3,4.99,0.00,30.6,29.2,00.0,39.3,32.4,16.2,0000.0,0007.42,0003.49,0003.18
2022-09-30 13:31:00,,0826.3,5.00,0.00,30.6,29.2,00.0,39.4,32.4,16.7,0000.0,0008.05,0003.51,0003.19
2022-09-30 13:32:00,,0826.3,5.01,0.00,30.6,29.2,00.0,39.4,32.4,16.9,0000.0,0007.96,0003.48,0003.17
2022-09-30 13:33:00,,0826.2,4.99,0.00,30.6,29.3,00.0,39.4,32.4,16.7,0000.0,0007.87,0003.47,0003.15
2022-09-30 13:34:00,,0826.2,5.01,0.00,30.6,29.3,00.0,39.4,32.5,16.6,0000.0,0008.16,0003.46,0003.14
2022-09-30 13:35:00,,0826.2,5.00,0.00,30.7,29.3,00.0,39.4,32.5,16.4,0000.0,0008.24,0003.48,0003.14
2022-09-30 13:36:00,,0826.2,4.99,0.00,30.7,29.3,00.0,39.4,32.5,16.5,0000.0,0008.04,0003.45,0003.12
2022-09-30 13:37:00,,0826.2,5.01,0.00,30.7,29.3,00.0,39.4,32.5,16.4,0000.0,0008.52,0003.43,0003.12
2022-09-30 13:38:00,,0826.3,5.00,0.00,30.7,29.3,00.0,39.4,32.5,16.8,0000.0,0008.35,0003.42,0003.12
2022-09-30 13:39:00,,0826.4,4.99,0.00,30.7,29.3,00.0,39.4,32.5,16.8,0000.0,0008.14,0003.38,0003.10
2022-09-30 13:40:00,,0826.2,5.01,0.00,30.7,29.3,00.0,39.4,32.5,16.3,0000.0,0008.41,0003.37,0003.08
2022-09-30 13:41:00,,0826.2,5.01,0.00,30.7,29.4,00.0,39.4,32.5,15.9,0000.0,0008.30,0003.37,0003.08
2022-09-30 13:42:00,,0826.2,4.99,0.00,30.7,29.4,00.0,39.5,32.5,16.0,0000.0,0007.74,0003.36,0003.07
2022-09-30 13:43:00,,0826.2,5.01,0.00,30.7,29.4,00.0,39.5,32.5,16.3,0000.0,0007.70,0003.37,0003.09
2022-09-30 13:44:00,,0826.2,4.99,0.00,30.7,29.4,00.0,39.5,32.6,16.3,0000.0,0008.61,0003.39,0003.11
2022-09-30 13:45:00,,0826.2,5.00,0.00,30.8,29.4,00.0,39.5,32.6,16.9,0000.0,0008.73,0003.40,0003.12
2022-09-30 13:46:00,,0826.2,5.01,0.00,30.8,29.4,00.0,39.5,32.6,16.8,0000.0,0008.60,0003.37,0003.11
2022-09-30 13:47:00,,0826.2,5.00,0.00,30.8,29.5,00.0,39.5,32.6,16.7,0000.0,0008.67,0003.40,0003.12
2022-09-30 13:48:00,,0826.2,4.98,0.00,30.8,29.5,00.0,39.5,32.6,16.3,0000.0,0008.09,0003.41,0003.12
2022-09-30 13:49:00,,0826.2,5.01,0.00,30.8,29.5,00.0,39.5,32.6,16.1,0000.0,0007.78,0003.44,0003.12
2022-09-30 13:50:00,,0826.1,4.99,0.00,30.8,29.5,00.0,39.5,32.6,15.8,0000.0,0008.12,0003.45,0003.13
2022-09-30 13:51:00,,0826.1,5.00,0.00,30.8,29.5,00.0,39.5,32.6,15.9,0000.0,0007.99,0003.48,0003.15
2022-09-30 13:52:00,,0826.1,5.01,0.00,30.8,29.5,00.0,39.5,32.6,15.8,0000.0,0007.96,0003.49,0003.16
2022-09-30 13:53:00,,0826.1,4.99,0.00,30.8,29.5,00.0,39.5,32.6,15.9,0000.0,0008.97,0003.49,0003.16
2022-09-30 13:54:00,,0826.2,5.00,0.00,30.8,29.5,00.0,39.6,32.6,16.3,0000.0,0009.22,0003.50,0003.16
2022-09-30 13:55:00,,0826.2,5.01,0.00,30.8,29.5,00.0,39.6,32.6,16.0,0000.0,0008.95,0003.50,0003.16
2022-09-30 13:56:00,,0826.2,4.97,0.00,30.9,29.5,00.0,39.6,32.7,15.9,0000.0,0008.62,0003.54,0003.17
2022-09-30 13:57:00,,0826.2,5.01,0.00,30.9,29.6,00.0,39.6,32.7,16.6,0000.0,0008.64,0003.55,0003.18
2022-09-30 13:58:00,,0826.2,5.00,0.00,30.9,29.6,00.0,39.6,32.7,16.8,0000.0,0008.55,0003.52,0003.18
2022-09-30 13:59:00,,0826.2,4.98,0.00,30.9,29.6,00.0,39.6,32.7,16.8,0000.0,0008.45,0003.48,0003.17
